Tracking 34305 objects as of 7-Jun-2026
HD Live streaming from Space Station
objects crossing your sky now

STARLINK-6334

Track STARLINK-6334 now!
10-day predictions
STARLINK-6334 is classified as:


NORAD ID: 57238
Int'l Code: 2023-094W
Perigee: 489.3 km
Apogee: 491.1 km
Inclination: 43.0 °
Period: 94.3 minutes
Semi major axis: 6861 km
RCS: Unknown
Launch date: July 7, 2023
Source: United States (US)
Launch site: AIR FORCE WESTERN TEST RANGE (AFWTR)
Your satellite tracking list
Your tracking list is empty




NASA's NSSDC Master Catalog

Two Line Element Set (TLE):
1 57238U 23094W   26157.52760841  .00000371  00000-0  22991-4 0  9995
2 57238  43.0031 238.4302 0001342 270.4340  89.6358 15.27579671160826
Source of the keplerian elements: AFSPC